Weather in Haiphong

Vietnam     20°51′14″N   106°40′15″E
В апреле 2022 года жителям России запретили посещать сайт meteo.paraplan.net по решению Генеральной прокуратуры. Аудитория сайта уменьшилась в 10 раз. Владельцы сайта не видят смысла в поддержке погодного сервера в таких условиях. Сайт будет закрыт в октябре.
temp.,
°C
wind,
m/s
gust,
m/s
humid.,
%
clouds,
%
prec.,
mm/h
press.,
hPa
HPBL,
m
6 october, thu
thu601:00+26e35845 0.0 1013247
04:00+25ene35888 0.4 1013227
07:00+26ne468615 0.6 1014377
10:00+29e57755 1.7 10151095
13:00+30ese56665 1.9 10121303
16:00+29e57751 0.0 1010945
19:00+27e48810 0.1 1012453
22:00+27ene48840 0.2 1014386
7 october, fri
fri701:00+26ene478724 1.3 1013358
04:00+25ene478817 0.6 1013338
07:00+26ne47856 1.4 1014468
10:00+29ene68695 0.4 10151208
13:00+30e78694 0.6 10121121
16:00+29e69731 0.1 1010931
19:00+27e610815 0.2 1012597
22:00+27e698434 1.2 1014529
8 october, sat
sat801:00+26ene588540 3.0 1013416
04:00+25ene478639 0.8 1012364
07:00+26ne488586 2.6 1014562
10:00+27ene798098 1.8 1015883
13:00+27e7983100 6.2 1012782
16:00+26e71088100 4.8 1011641
19:00+26e6108793 5.7 1013555
22:00+26e598619 5.6 1014404
9 october, sun
sun901:00+25ene3789100 11.5 1013276
04:00+25ene3691100 10.1 1013293
07:00+24ne3696100 25.3 1014289
10:00+24ene3695100 21.6 1016355
13:00+24ne3596100 32.4 1015318
16:00+25nne3689100 1.4 1014422
19:00+24n469067 2.1 1016247
22:00+21nne71385100 0.1 1018503
10 october, mon
mon1001:00+20nne71285100 0.8 1018539
04:00+18n61293100 4.2 1018587
07:00+19nnw4789100 5.2 1020348
10:00+19nnw4786100 0.1 1021508
13:00+19nnw578594 0.1 1019514
16:00+21nnw467449 0.0 1018671
19:00+19nnw348278 0.0 1019232
22:00+19nnw3482100 0.0 1020216